#timestamp,LO_Frequency,Hit,StdDev 
1632974415.9,286046997.3,P
1632974435.7,286046997.4,N
1632974455.5,286046997.8,N
1632974475.4,286046997.4,Y
1632974495.2,286046998.4,P
1632974515.1,286046998.5,P
1632974516.0,286046998.5,P
1632974535.8,286047000.8,Y
1632974555.7,286047002.2,P
1632974575.5,286047001.7,N
1632974595.3,286047001.5,N
1632974615.2,286047001.8,N
1632974635.0,286047004.0,N
1632974635.9,286047004.0,N
1632974655.8,286047001.3,N
1632974675.6,286047001.8,N
1632974695.4,286047002.4,N
1632974715.3,286047002.8,N
1632974735.1,286047002.3,N
1632974755.9,286047002.5,N
1632974775.7,286047000.2,N
1632974795.5,286046998.1,N
1632974815.4,286047001.0,N
1632974835.2,286046999.9,N
1632974855.1,286047002.1,N
1632974856.0,286047002.1,N
1632974875.8,286047002.7,N
1632974895.6,286047000.5,N
1632974915.5,286047001.9,N
1632974935.3,286047003.9,N
1632974955.2,286047003.9,N
1632974975.0,286047002.3,N
1632974975.9,286047002.3,N
1632974995.7,286047002.4,N
1632975015.6,286047002.2,N
1632975035.4,286047002.1,N
1632975055.3,286047002.6,N
1632975075.1,286047001.7,N
1632975076.0,286047001.7,N
1632975095.8,286047002.4,N
1632975115.7,286047000.2,N
1632975135.5,286047001.9,N
1632975155.3,286047002.2,N
1632975175.2,286047002.2,N
1632975195.0,286047000.5,N
1632975195.9,286047000.5,N
1632975215.8,286047000.7,N
1632975235.6,286046998.1,N
1632975255.5,286046998.8,N
1632975275.3,286046998.2,N
1632975295.1,286046996.5,N
1632975315.9,286046999.1,N
1632975335.7,286047001.0,N
1632975355.5,286047000.9,N
1632975375.4,286047000.8,N
1632975395.7,286047000.7,N
1632975415.5,286046999.5,N
1632975435.4,286046999.4,N
1632975455.2,286046996.6,N
1632975475.0,286046997.4,N
1632975475.9,286046997.4,N
1632975495.8,286046994.9,N
1632975515.6,286046999.2,N
1632975535.5,286046999.2,N
1632975555.3,286046998.1,N
1632975575.1,286047000.9,N
1632975595.9,286047000.5,N
1632975615.7,286046998.1,N
1632975635.6,286046998.4,N
1632975655.4,286046998.6,N
1632975675.2,286047000.2,N
1632975695.1,286046999.9,N
1632975696.0,286046999.9,N
1632975715.8,286047002.3,N
1632975735.6,286047000.1,N
1632975755.5,286047000.9,N
1632975775.3,286047000.9,N
1632975795.2,286047001.0,N
1632975815.9,286046999.8,N
1632975835.7,286046998.3,N
1632975855.6,286046998.6,N
1632975875.4,286047000.8,N
1632975895.3,286047001.0,N
1632975915.1,286047000.6,N
1632975916.0,286047000.6,N
1632975935.8,286046999.8,N
1632975955.7,286047001.2,N
1632975975.5,286046999.9,N
1632975995.3,286047000.3,N
1632976015.2,286047000.9,N
1632976035.0,286046998.1,N
1632976035.9,286046998.1,N
1632976055.8,286047000.0,N
1632976075.6,286047001.6,N
1632976095.4,286047002.1,N
1632976115.3,286047001.5,N
1632976135.1,286047001.6,N
1632976155.9,286047002.1,N
1632976175.7,286047002.3,N
1632976195.6,286046999.7,N
1632976215.4,286047001.9,N
1632976235.2,286047002.4,N
1632976255.1,286047002.3,N
1632976256.0,286047002.3,N
1632976275.8,286047000.6,N
1632976295.7,286047000.9,N
1632976315.5,286047000.2,N
1632976335.3,286047000.0,N
1632976355.2,286047000.6,N
1632976375.0,286047000.0,N
1632976375.9,286047000.0,N
1632976395.8,286046999.9,N
1632976415.6,286047002.3,N
1632976435.4,286047001.3,N
1632976455.3,286047002.4,N
1632976475.1,286047000.3,N
1632976495.8,286047000.8,N
1632976515.7,286046998.2,N
1632976535.5,286047000.8,N
1632976555.4,286046999.8,N
1632976575.2,286047001.5,N
1632976595.0,286047001.5,N
1632976595.9,286047001.5,N
1632976615.8,286047004.4,Y
1632976635.6,286047002.2,P
1632976655.4,286047002.1,P
1632976675.3,286047002.0,P
1632976695.1,286047003.9,Y
1632976715.9,286047000.7,P
1632976735.7,286046999.0,N
1632976755.5,286046999.1,N
1632976775.4,286046997.4,N
1632976795.2,286046997.1,N
1632976815.1,286046995.1,N
1632976816.0,286046995.1,N
1632976835.8,286046997.6,N
1632976855.6,286046995.3,N
1632976875.5,286046997.3,N
1632976895.3,286046996.5,N
1632976915.1,286046996.9,N
1632976935.9,286046996.9,N
1632976955.7,286046997.0,N
1632976975.6,286046999.1,N
1632976995.4,286046996.5,N
1632977015.2,286046998.3,N
1632977035.1,286047001.1,N
1632977036.0,286047001.1,N
1632977055.8,286047000.1,N
1632977075.7,286047000.2,N
1632977095.5,286046999.9,N
1632977115.3,286046998.6,N
1632977135.2,286046998.1,N
1632977155.0,286047000.8,N
1632977155.9,286047000.8,N
1632977175.7,286046998.8,N
1632977195.6,286046996.6,N
1632977215.4,286046998.3,N
1632977235.3,286046998.9,N
1632977255.1,286046999.0,N
1632977256.0,286046999.0,N
1632977275.8,286046999.5,N
1632977295.7,286046997.4,N
1632977315.5,286046996.5,N
1632977335.3,286046998.2,N
1632977355.2,286046999.5,N
1632977375.0,286047001.2,N
1632977375.9,286047001.2,N
1632977395.8,286047001.2,N
1632977415.6,286046998.1,N
1632977435.5,286046998.9,N
1632977455.3,286046998.8,N
1632977475.1,286046996.6,N
1632977495.9,286046999.5,N
1632977515.7,286046998.1,N
1632977535.5,286047001.2,N
1632977555.4,286047000.7,N
1632977575.2,286047001.0,N
1632977595.1,286047000.0,N
1632977596.0,286047000.0,N
1632977615.8,286047000.0,N
1632977635.6,286046999.9,N
1632977655.5,286046998.5,N
1632977675.3,286046999.1,N
1632977695.1,286046999.5,N
1632977715.9,286046999.4,N
1632977735.7,286046996.5,N
1632977755.6,286046998.9,N
1632977775.4,286046996.8,N
1632977795.2,286046996.6,N
1632977815.1,286046999.1,N
1632977816.0,286046999.1,N
1632977835.8,286046997.2,N
1632977855.7,286046996.8,N
1632977875.5,286046998.0,N
1632977895.3,286046996.5,N
1632977915.2,286046998.8,N
1632977935.0,286046998.1,N
1632977935.9,286046998.1,N
1632977955.7,286046998.4,N
1632977975.6,286047000.7,N
1632977995.4,286047000.9,N
